Weather History for Tucson, AZ

Change the Weather History Date:

Monday, October 8, 2012

  Actual Average Record
Temperature  
Mean Temperature 77 °F 74 °F  
Max Temperature 92 °F 88 °F 101 °F (1910)
Min Temperature 62 °F 60 °F 42 °F (1970)
Degree Days  
Heating Degree Days 0 0  
Month to date heating degree days 0 0  
Since 1 July heating degree days 0 0  
Cooling Degree Days 12 9  
Month to date cooling degree days 112 83  
Year to date cooling degree days 3374 2990  
Growing Degree Days 26 (Base 50)    
Moisture  
Dew Point 34 °F    
Average Humidity 24    
Maximum Humidity 34    
Minimum Humidity 13    
Precipitation  
Precipitation 0.00 in 0.03 in 0.65 in (2001)
Month to date precipitation 0.00 0.28  
Year to date precipitation 6.70 9.48  
Snow  
Snow 0.00 in 0.00 in 0.00 in (2002)
Month to date snowfall 0.0 0.0  
Since 1 July snowfall 0.0 0.0  
Snow Depth 0.00 in    
Sea Level Pressure  
Sea Level Pressure 29.87 in    
Wind  
Wind Speed 6 mph (South)    
Max Wind Speed 15 mph    
Max Gust Speed 21 mph    
Visibility 10 miles    
Events      
T = Trace of Precipitation, MM = Missing Value Source: NWS Daily Summary

Daily Weather History Graph

Daily Weather History Graph

Search for Another Location

Airport:

Trip Planner

Search our weather history database for the weather conditions in past years. The results will help you decide how hot, cold, wet, or windy it might be!

Date:

Astronomy

Oct. 08, 2012 Rise Set
Actual Time 6:22 AM MST 5:59 PM MST
Civil Twilight 5:58 AM MST 6:23 PM MST
Nautical Twilight 5:29 AM MST 6:51 PM MST
Astronomical Twilight 5:01 AM MST 7:20 PM MST
Moon No Moon Rise 1:29 PM MST (10/8)
Length of Visible Light 12h 25m
Length of Day
11h 36m
Last Quarter, 45% of the Moon is Illuminated
Oct 8
Last Quarter
Oct 15
New
Oct 21
First Quarter
Oct 29
Full
Nov 6
Last Quarter

Hourly Weather History & Observations

Time (MST) Temp. Dew Point Humidity Pressure Visibility Wind Dir Wind Speed Gust Speed Precip Events Conditions
12:53 AM 66.0 °F 34.0 °F 30% 29.87 in 10.0 mi SSE 4.6 mph - N/A   Clear
1:53 AM 64.9 °F 33.1 °F 31% 29.87 in 10.0 mi SSE 6.9 mph - N/A   Clear
2:53 AM 64.9 °F 32.0 °F 29% 29.86 in 10.0 mi SSE 6.9 mph - N/A   Clear
3:53 AM 64.0 °F 32.0 °F 30% 29.87 in 10.0 mi SSE 10.4 mph - N/A   Clear
4:53 AM 63.0 °F 33.1 °F 33% 29.88 in 10.0 mi SSE 8.1 mph - N/A   Clear
5:53 AM 63.0 °F 33.1 °F 33% 29.90 in 10.0 mi SE 6.9 mph - N/A   Clear
6:53 AM 64.0 °F 33.1 °F 31% 29.93 in 10.0 mi SE 11.5 mph - N/A   Clear
7:53 AM 66.9 °F 34.0 °F 30% 29.94 in 9.0 mi SSE 9.2 mph - N/A   Clear
8:53 AM 72.0 °F 35.1 °F 26% 29.94 in 10.0 mi SSE 9.2 mph - N/A   Clear
9:53 AM 78.1 °F 34.0 °F 20% 29.93 in 10.0 mi SSE 4.6 mph - N/A   Clear
10:53 AM 84.9 °F 33.1 °F 16% 29.91 in 10.0 mi Calm Calm - N/A   Clear
11:53 AM 88.0 °F 30.9 °F 13% 29.88 in 10.0 mi Variable 4.6 mph - N/A   Clear
12:53 PM 88.0 °F 32.0 °F 14% 29.86 in 10.0 mi SSW 6.9 mph - N/A   Clear
1:53 PM 90.0 °F 33.1 °F 13% 29.83 in 10.0 mi WNW 8.1 mph - N/A   Clear
2:53 PM 90.0 °F 34.0 °F 14% 29.82 in 10.0 mi Variable 6.9 mph - N/A   Clear
3:53 PM 91.0 °F 33.1 °F 13% 29.80 in 10.0 mi NNW 4.6 mph - N/A   Clear
4:53 PM 90.0 °F 33.1 °F 13% 29.80 in 10.0 mi NW 5.8 mph - N/A   Clear
5:53 PM 87.1 °F 35.1 °F 16% 29.81 in 10.0 mi NW 8.1 mph - N/A   Clear
6:53 PM 84.0 °F 37.0 °F 19% 29.83 in 10.0 mi West 6.9 mph - N/A   Clear
7:53 PM 78.1 °F 37.9 °F 24% 29.86 in 10.0 mi WSW 4.6 mph - N/A   Clear
8:53 PM 77.0 °F 37.0 °F 24% 29.87 in 10.0 mi Calm Calm - N/A   Clear
9:53 PM 75.9 °F 37.0 °F 24% 29.88 in 10.0 mi Calm Calm - N/A   Clear
10:53 PM 72.0 °F 35.1 °F 26% 29.88 in 10.0 mi South 8.1 mph - N/A   Clear
11:53 PM 70.0 °F 37.9 °F 31% 29.89 in 10.0 mi SSE 3.5 mph - N/A   Clear